Location: Baller�as
(41.9020°N, 0.1554°W)
Time: 10:38:16
(UTC+00:00)

NOSS 3-2 (C) - Pass Details

Date: 10 August 2020
Orbit: 800 x 1413 km, 63.4° (Epoch: 15 September)

Event Time Altitude Azimuth Distance (km) Brightness Sun altitude
Exits shadow 21:51:47 10° 221° (SW) 2,455 5.5 -25.1°
Reaches altitude 10° 21:51:48 10° 221° (SW) 2,446 5.5 -25.1°
Maximum altitude 21:57:25 75° 307° (NW) 938 3.4 -25.7°
Drops below altitude 10° 22:03:51 10° 33° (NNE) 2,785 6.1 -26.3°
Sets 22:06:39 0° 35° (NE) 3,835 6.9 -26.6°
